Weather History for Northeast Philadelphia, PA

Change the Weather History Date:

Friday, February 7, 2014

  Actual Average Record
Temperature  
Mean Temperature 29 °F -  
Max Temperature 35 °F 40 °F 64 °F (2008)
Min Temperature 23 °F 24 °F 12 °F (2007)
Degree Days  
Heating Degree Days 36    
Moisture  
Dew Point 16 °F    
Average Humidity 58    
Maximum Humidity 72    
Minimum Humidity 44    
Precipitation  
Precipitation 0.00 in - - ()
Sea Level Pressure  
Sea Level Pressure 30.32 in    
Wind  
Wind Speed 6 mph (WNW)    
Max Wind Speed 13 mph    
Max Gust Speed -    
Visibility 10 miles    
Events      
Averages and records for this station are not official NWS values.
T = Trace of Precipitation, MM = Missing Value Source: NWS Daily Summary

Daily Weather History Graph

Daily Weather History Graph

Search for Another Location

Airport:

Trip Planner

Search our weather history database for the weather conditions in past years. The results will help you decide how hot, cold, wet, or windy it might be!

Date:

Astronomy

Feb. 07, 2014 Rise Set
Actual Time 7:02 AM EST 5:26 PM EST
Civil Twilight 6:34 AM EST 5:54 PM EST
Nautical Twilight 6:02 AM EST 6:26 PM EST
Astronomical Twilight 5:30 AM EST 6:58 PM EST
Moon 11:36 AM EST (2/7) 1:16 AM EST (2/7)
Length of Visible Light 11h 20m
Length of Day
10h 23m
First Quarter, 59% of the Moon is Illuminated
Feb 7
First Quarter
Feb 14
Full
Feb 22
Last Quarter
Mar 1
New
Mar 8
First Quarter

Hourly Weather History & Observations

Time (EST) Temp. Windchill Dew Point Humidity Pressure Visibility Wind Dir Wind Speed Gust Speed Precip Events Conditions
12:54 AM 28.0 °F 20.8 °F 18.0 °F 66% 30.30 in 9.0 mi WNW 6.9 mph - N/A   Clear
1:54 AM 28.0 °F 20.8 °F 18.0 °F 66% 30.28 in 9.0 mi West 6.9 mph - N/A   Partly Cloudy
2:54 AM 27.0 °F 23.0 °F 16.0 °F 63% 30.29 in 10.0 mi NW 3.5 mph - N/A   Scattered Clouds
3:54 AM 27.0 °F 21.6 °F 16.0 °F 63% 30.31 in 10.0 mi NW 4.6 mph - N/A   Mostly Cloudy
4:54 AM 27.0 °F 21.6 °F 15.1 °F 61% 30.31 in 10.0 mi WNW 4.6 mph - N/A   Partly Cloudy
5:54 AM 26.1 °F 21.9 °F 15.1 °F 63% 30.33 in 10.0 mi NW 3.5 mph - N/A   Clear
6:54 AM 23.0 °F - 15.1 °F 72% 30.34 in 9.0 mi Calm Calm - N/A   Clear
7:54 AM 23.0 °F - 15.1 °F 72% 30.37 in 7.0 mi Calm Calm - N/A   Clear
8:54 AM 28.9 °F 25.2 °F 16.0 °F 58% 30.38 in 10.0 mi WSW 3.5 mph - N/A   Clear
9:54 AM 30.9 °F 25.2 °F 16.0 °F 54% 30.37 in 10.0 mi West 5.8 mph - N/A   Clear
10:54 AM 32.0 °F 24.2 °F 17.1 °F 54% 30.36 in 10.0 mi West 9.2 mph - N/A   Clear
11:54 AM 33.1 °F 25.5 °F 17.1 °F 52% 30.33 in 10.0 mi WSW 9.2 mph - N/A   Clear
12:54 PM 34.0 °F 25.0 °F 16.0 °F 48% 30.30 in 10.0 mi WNW 12.7 mph - N/A   Clear
1:54 PM 35.1 °F 26.9 °F 16.0 °F 46% 30.27 in 10.0 mi WNW 11.5 mph - N/A   Clear
2:54 PM 35.1 °F 26.4 °F 15.1 °F 44% 30.29 in 10.0 mi WNW 12.7 mph - N/A   Clear
3:54 PM 34.0 °F 25.5 °F 15.1 °F 46% 30.28 in 10.0 mi WNW 11.5 mph - N/A   Clear
4:54 PM 33.1 °F 26.1 °F 15.1 °F 48% 30.29 in 10.0 mi WNW 8.1 mph - N/A   Clear
5:54 PM 30.9 °F 24.3 °F 17.1 °F 57% 30.32 in 10.0 mi West 6.9 mph - N/A   Clear
6:54 PM 30.9 °F 25.2 °F 17.1 °F 57% 30.34 in 9.0 mi West 5.8 mph - N/A   Clear
7:54 PM 30.0 °F 25.2 °F 18.0 °F 61% 30.33 in 9.0 mi WSW 4.6 mph - N/A   Clear
8:54 PM 28.9 °F 22.8 °F 18.0 °F 64% 30.33 in 8.0 mi West 5.8 mph - N/A   Clear
9:54 PM 28.9 °F 22.8 °F 17.1 °F 61% 30.34 in 9.0 mi West 5.8 mph - N/A   Clear
10:54 PM 28.9 °F 21.9 °F 17.1 °F 61% 30.34 in 9.0 mi West 6.9 mph - N/A   Clear
11:54 PM 28.0 °F 22.8 °F 14.0 °F 56% 30.34 in 10.0 mi WNW 4.6 mph - N/A   Clear